[Iaude] MPEC V178: 2023 VW5 [a=0.86,e=0.42,i=1.6,H=25.3]
    mpec at marsden.cfa.harvard.edu 
    mpec at marsden.cfa.harvard.edu
       
    Fri Nov 10 15:18:27 EST 2023
    
    
  
M.P.E.C. 2023-V178                            Issued 2023 November 10, 20:16 UT
     The Minor Planet Electronic Circulars contain information on unusual
         minor planets, routine data on comets and natural satellites,
         and occasional editorial announcements.  They are published
    on behalf of Division F of the International Astronomical Union by the
          Minor Planet Center, Smithsonian Astrophysical Observatory,
                          Cambridge, MA 02138, U.S.A.
			  
             Prepared using the Tamkin Foundation Computer Network
                              MPC at CFA.HARVARD.EDU
            URL https://www.minorplanetcenter.net/    ISSN 1523-6714
                                    2023 VW5                                    
Observations:
     K23V05W* C2023 11 09.37771104 52 50.095+25 53 51.50         20.95GVEV178V00
     K23V05W  C2023 11 09.38321904 52 48.922+25 53 49.96         21.08GVEV178V00
     K23V05W  C2023 11 09.38872104 52 47.730+25 53 48.34         21.17GVEV178V00
     K23V05W  C2023 11 09.39422304 52 46.556+25 53 46.64         20.90GVEV178V00
     K23V05W KC2023 11 09.46842804 52 30.650+25 53 17.70         20.37GVEV178I52
     K23V05W KC2023 11 09.47091104 52 30.090+25 53 17.10               VEV178I52
     K23V05W KC2023 11 09.47588004 52 29.080+25 53 14.70         20.64GVEV178I52
     K23V05W KB2023 11 10.23372 04 50 16.20 +25 48 58.4          20.5 GXEV178H36
     K23V05W KB2023 11 10.24010 04 50 14.67 +25 48 55.9          20.3 GXEV178H36
     K23V05W KB2023 11 10.24649 04 50 13.13 +25 48 55.5          20.3 GXEV178H36
     K23V05W KC2023 11 10.32144604 49 56.752+25 48 44.89         20.96GVEV178I52
     K23V05W KC2023 11 10.32344304 49 56.215+25 48 43.88         20.34GVEV178I52
     K23V05W KC2023 11 10.32544704 49 55.747+25 48 43.78         20.26GVEV178I52
     K23V05W KC2023 11 10.32746304 49 55.232+25 48 43.20         20.65GVEV178I52
     K23V05W 1C2023 11 10.81921 04 48 12.67 +25 44 25.9          21.1 VXEV178033
     K23V05W 1C2023 11 10.82001 04 48 12.49 +25 44 25.6          21.4 VXEV178033
     K23V05W 1C2023 11 10.82082 04 48 12.30 +25 44 25.3          21.4 VXEV178033
Observer details:
033 Karl Schwarzschild Observatory, Tautenburg.  Observers S. Melnikov, C.
    Hogner, F. Ludwig, M. Hartmann, B. Stecklum.  Measurer B. Stecklum.
    1.34-m f/3 Schmidt + CCD.
H36 Sandlot Observatory, Scranton.  Observer G. Hug.  0.56-m f/4.8 reflector +
    CMO.
I52 Steward Observatory, Mt. Lemmon Station.  Observer H. Groeller.  Measurers
    E. C. Beshore, D. Fay, J. B. Fazekas, D. C. Fuls, A. R. Gibbs, A. D.
    Grauer, H. Groeller, J. K. Hogan, R. A. Kowalski, S. M. Larson, G. J.
    Leonard, D. Rankin, R. L. Seaman, F. C. Shelly, K. W. Wierzchos.  1.0-m
    prime focus + CCD.
V00 Kitt Peak-Bok.  Observer K. W. Wierzchos.  Measurers M. J. Brucker, C. E.
    Woodward, D. Fay, J. B. Fazekas, D. C. Fuls, A. R. Gibbs, H. Groeller, J.
    K. Hogan, R. A. Kowalski, S. M. Larson, C. Lejoly, G. J. Leonard, R. A.
    Mastaler, R. S. McMillan, D. Rankin, R. L. Seaman, A. Serrano, F. C.
    Shelly, K. W. Wierzchos.  2.25-m reflector + 4x4K mosaic CCD.
Orbital elements:
2023 VW5                                                 Earth MOID = 0.0004 AU
Epoch 2023 Sept. 13.0 TT = JDT 2460200.5                MPC                     
M 183.38073              (2000.0)            P               Q                  
n   1.24560013     Peri.  314.07893     -0.98033776     +0.19597811             
a   0.8554940      Node   237.23577     -0.17231497     -0.90709957             
e   0.4176028      Incl.    1.56947     -0.09615314     -0.37250899             
P   0.79           H   25.38          G   0.15           U   7                  
Residuals in seconds of arc
231109 V00  0.0   0.0     231109 I52  0.1-  0.1+    231110 I52  0.1+  0.0
231109 V00  0.1+  0.0     231110 H36  0.4+  0.4+    231110 I52  0.0   0.0
231109 V00  0.1-  0.0     231110 H36  0.3+  0.7-    231110 033  0.1-  0.5+
231109 V00  0.0   0.0     231110 H36  0.1+  0.3+    231110 033  0.0   0.3+
231109 I52  0.0   0.2-    231110 I52  0.1+  0.1+    231110 033  0.0   0.2+
231109 I52  0.5-  0.3+    231110 I52  0.4-  0.4-
Ephemeris:
2023 VW5                 a,e,i = 0.86, 0.42, 2                   q = 0.4982
Date    TT    R. A. (2000) Decl.     Delta      r    Elong.  Phase     V
2023 10 11    04 55 29.8 +25 41 41   0.2848  1.1730   121.6    46.5    24.8
...
2023 10 26    05 04 48.1 +26 05 44   0.1761  1.1244   134.3    39.3    23.4
...
2023 11 03    05 03 00.5 +26 07 52   0.1205  1.0904   142.6    33.5    22.4
...
2023 11 09    04 53 51.6 +25 55 44   0.08011 1.0613   150.7    27.2    21.2
2023 11 10    04 50 58.1 +25 50 53   0.07350 1.0561   152.3    25.8    21.0
2023 11 11    04 47 25.1 +25 44 29   0.06693 1.0509   154.1    24.3    20.7
...
2023 11 17    03 50 31.8 +23 10 54   0.02885 1.0175   172.9     6.9    18.2
...
2023 11 25    19 19 11.1 -25 40 13   0.02773 0.9681    45.8   133.0    23.5
...
2023 12 10    17 49 26.2 -26 47 55   0.1264  0.8611    10.9   167.6
A. U. Tomatic                (C) Copyright 2023 MPC           M.P.E.C. 2023-V178
    
    
More information about the Iaude
mailing list